📊 Raw Sensor Data
Showing records 42276 to 42300 of 84,998 total
| ID | Distance (ft) | Battery V | Battery A | Int Temp (°F) | Int Humid (%) | Ext Temp (°F) | Solar V | RSSI | SNR | Time Stamp |
|---|---|---|---|---|---|---|---|---|---|---|
| 42735 | 15.5 | 4.01 | 0 | 91 | 41 | 84 | 5.10 | -69 | 7 | 06/06/2025 01:30 PM |
| 42734 | 15.5 | 4.01 | 0 | 89 | 41 | 84 | 5.10 | -70 | 7 | 06/06/2025 01:15 PM |
| 42733 | 15.5 | 4.02 | 0 | 87 | 42 | 83 | 5.10 | -68 | 7 | 06/06/2025 01:00 PM |
| 42732 | 15.5 | 4.01 | 0 | 84 | 42 | 80 | 5.10 | -69 | 7 | 06/06/2025 12:45 PM |
| 42731 | 15.5 | 4.02 | 0 | 83 | 42 | 79 | 5.10 | -69 | 8 | 06/06/2025 12:30 PM |
| 42730 | 15.5 | 4.01 | 0 | 82 | 42 | 80 | 5.10 | -70 | 8 | 06/06/2025 12:15 PM |
| 42729 | 15.5 | 4.01 | 0 | 80 | 42 | 78 | 5.10 | -69 | 8 | 06/06/2025 12:00 PM |
| 42728 | 15.5 | 4.05 | 0 | 79 | 42 | 78 | 5.10 | -69 | 7 | 06/06/2025 11:45 AM |
| 42727 | 15.5 | 4.01 | 0 | 77 | 43 | 79 | 5.10 | -69 | 8 | 06/06/2025 11:30 AM |
| 42726 | 15.5 | 4.01 | 0 | 76 | 43 | 73 | 5.10 | -69 | 7 | 06/06/2025 11:15 AM |
| 42725 | 15.5 | 4.03 | 0 | 76 | 42 | 72 | 5.10 | -70 | 7 | 06/06/2025 11:00 AM |
| 42724 | 15.5 | 4.01 | 0 | 75 | 42 | 76 | 5.10 | -69 | 7 | 06/06/2025 10:45 AM |
| 42723 | 15.5 | 4.01 | 0 | 74 | 42 | 77 | 5.10 | -69 | 8 | 06/06/2025 10:30 AM |
| 42722 | 15.5 | 4.01 | 0 | 72 | 42 | 72 | 5.10 | -67 | 8 | 06/06/2025 10:15 AM |
| 42721 | 15.5 | 4.01 | 0 | 72 | 42 | 70 | 5.10 | -69 | 8 | 06/06/2025 10:00 AM |
| 42720 | 15.5 | 4.01 | 0 | 71 | 42 | 71 | 5.10 | -68 | 8 | 06/06/2025 09:45 AM |
| 42719 | 15.5 | 4.14 | 0 | 69 | 43 | 68 | 5.10 | -70 | 8 | 06/06/2025 09:30 AM |
| 42718 | 15.5 | 4.14 | 0 | 68 | 43 | 69 | 5.10 | -70 | 8 | 06/06/2025 09:15 AM |
| 42717 | 15.5 | 4.01 | 0 | 67 | 43 | 71 | 5.10 | -70 | 7 | 06/06/2025 09:00 AM |
| 42716 | 15.5 | 4.01 | 0 | 65 | 43 | 65 | 5.10 | -70 | 8 | 06/06/2025 08:45 AM |
| 42715 | 15.5 | 4.01 | 0 | 64 | 43 | 69 | 5.10 | -71 | 7 | 06/06/2025 08:30 AM |
| 42714 | 15.4 | 4.01 | 0 | 62 | 42 | 66 | 5.10 | -70 | 8 | 06/06/2025 08:00 AM |
| 42713 | 15.4 | 4.03 | 0 | 61 | 42 | 64 | 5.10 | -69 | 8 | 06/06/2025 07:45 AM |
| 42712 | 15.4 | 4.09 | 32 | 59 | 42 | 63 | 4.50 | -68 | 8 | 06/06/2025 07:30 AM |
| 42711 | 15.4 | 4.04 | 21 | 57 | 42 | 62 | 4.50 | -69 | 8 | 06/06/2025 07:15 AM |